Home   Weather   Allschwil   Past weeks
Flag for Switzerland

Past Weather in Allschwil, Basel-Land, Switzerland — Yesterday and Last 2 Weeks

Now
31 °F

Chilly.


Feels Like: 25 °F
Forecast: 42 / 34 °F
Wind: 6 mph from South

Location: Bale-Mulhouse

Current Time: Dec 11, 2019 at 3:56:38 am

Latest Report: Dec 11, 2019 at 3:00 am


Visibility: 28 mi

Pressure: 30.15 "Hg

Humidity: 86%

Dew Point: 27 °F

Location of AllschwilLocation

Past Weather in Allschwil — Graph

°F

Allschwil Temperature Yesterday

Maximum temperature yesterday: 45 °F (at 2:00 pm)
Minimum temperature yesterday: 29 °F (at 11:00 pm)
Average temperature yesterday: 38 °F

High & Low Weather Summary for the Past Weeks

 TemperatureHumidityPressure
High60 °F (Nov 27, 2:00 pm)98% (Nov 30, 11:00 pm)30.45 "Hg (Nov 30, 11:00 pm)
Low23 °F (Dec 4, 5:00 am)53% (Nov 27, 3:00 pm)29.47 "Hg (Nov 27, 3:00 am)
Average41 °F83%30.05 "Hg
* Reported Nov 26 2:00 am — Dec 11 2:00 am, Allschwil. Weather by CustomWeather, © 2019

Note: Actual official high and low records may vary slightly from our data, if they occured in-between our weather recording intervals... More about our weather records

Allschwil Weather History for the Previous 24 Hours

Scroll right to see more
 ConditionsComfort  
Time TempWeatherWind HumidityBarometerVisibility
2:00 am
Wed, Dec 11
30 °FChilly.6 mph89%30.17 "Hg17 mi
1:00 am31 °FChilly.8 mph86%30.19 "Hg19 mi
12:00 am30 °FChilly.6 mph89%30.23 "Hg15 mi
11:00 pm
Tue, Dec 10
29 °FPassing clouds.7 mph87%30.25 "Hg12 mi
10:00 pm30 °FPassing clouds.6 mph95%30.27 "Hg16 mi
9:00 pm31 °FPassing clouds.6 mph90%30.28 "Hg16 mi
8:00 pm31 °FPassing clouds.2 mph94%30.29 "Hg16 mi
7:00 pm31 °FPassing clouds.2 mph92%30.31 "Hg16 mi
6:00 pm33 °FPassing clouds.1 mph88%30.31 "Hg31 mi
5:00 pm37 °FPassing clouds.1 mph81%30.32 "Hg31 mi
4:00 pm42 °FPassing clouds.5 mph64%30.32 "Hg31 mi
3:00 pm44 °FPassing clouds.2 mph61%30.36 "Hg31 mi
2:00 pm45 °FPassing clouds.1 mph62%30.37 "Hg25 mi
1:00 pm45 °FPassing clouds.3 mph65%30.39 "Hg19 mi
12:00 pm43 °FPassing clouds.3 mph70%30.42 "Hg19 mi
11:00 am41 °FPassing clouds.3 mph77%30.44 "Hg19 mi
10:00 am38 °FPassing clouds.1 mph87%30.44 "Hg19 mi
9:00 am35 °FPassing clouds.1 mph89%30.44 "Hg19 mi
8:00 am36 °FOvercast.1 mph86%30.42 "Hg19 mi
7:00 am35 °FPassing clouds.8 mph88%30.40 "Hg16 mi
6:00 am36 °FPassing clouds.10 mph89%30.37 "Hg16 mi
5:00 am35 °FPassing clouds.7 mph86%30.34 "Hg11 mi
4:00 am38 °FOvercast.6 mph78%30.31 "Hg34 mi
3:00 am39 °FPassing clouds.9 mph80%30.29 "Hg37 mi
Weather by CustomWeather, © 2019

See weather overview

Advertising